EZY145 EGPH-EKCH

Flight info

Callsign EZY145
Flight time N/A
Altitude 37000
Route GRICE P600 ASNUD DCT ADN DCT ELSAN DCT VAXIT DCT ABINO T56 TESPI
Aircraft A320/M-SDE3FGHIRWY/LB1

Departure

Time 2026-04-22 17:24
Airport Edinburgh Airport (EGPH)

Arrival

Time N/A
Airport Copenhagen Kastrup Airport (EKCH)
Time Latitude Longitude Altitude Speed Heading
2026-04-22 16:49 55.94702 -3.36602 112 ft 0 kts 89°
2026-04-22 17:15 55.94701 -3.36642 112 ft 4 kts 85°
2026-04-22 17:15 55.94697 -3.36689 113 ft 4 kts 72°
2026-04-22 17:15 55.94685 -3.36728 114 ft 4 kts 30°
2026-04-22 17:16 55.94675 -3.36735 112 ft 0 kts 359°
2026-04-22 17:18 55.94694 -3.36735 114 ft 6 kts 360°
2026-04-22 17:18 55.94744 -3.36744 116 ft 7 kts 340°
2026-04-22 17:19 55.94901 -3.36808 113 ft 14 kts 327°
2026-04-22 17:19 55.94866 -3.37073 114 ft 11 kts 238°
2026-04-22 17:20 55.94796 -3.37274 116 ft 8 kts 239°
2026-04-22 17:20 55.94745 -3.37426 112 ft 8 kts 237°
2026-04-22 17:21 55.94708 -3.37533 112 ft 10 kts 239°
2026-04-22 17:21 55.94646 -3.37716 115 ft 7 kts 239°
2026-04-22 17:22 55.94593 -3.37881 114 ft 9 kts 249°
2026-04-22 17:22 55.94611 -3.37966 114 ft 9 kts 319°
2026-04-22 17:22 55.94715 -3.38057 114 ft 6 kts 20°
2026-04-22 17:23 55.94743 -3.38000 115 ft 6 kts 55°
2026-04-22 17:23 55.94915 -3.37494 112 ft 82 kts 58°
2026-04-22 17:23 55.95320 -3.36295 111 ft 139 kts 59°
2026-04-22 17:24 55.95863 -3.34699 533 ft 152 kts 60°
2026-04-22 17:24 55.96482 -3.33083 1121 ft 166 kts 51°
2026-04-22 17:24 55.97372 -3.31713 1827 ft 170 kts 35°
2026-04-22 17:24 55.98444 -3.30712 2419 ft 181 kts 30°
2026-04-22 17:25 55.99674 -3.29803 2798 ft 201 kts 25°
2026-04-22 17:25 56.01065 -3.28987 3208 ft 220 kts 20°
2026-04-22 17:25 56.02640 -3.28263 3555 ft 250 kts 16°
2026-04-22 17:25 56.04488 -3.28247 3995 ft 281 kts 348°
2026-04-22 17:26 56.06202 -3.29962 4922 ft 288 kts 314°
2026-04-22 17:26 56.07273 -3.32993 5872 ft 292 kts 293°
2026-04-22 17:26 56.07967 -3.36514 6456 ft 310 kts 283°
2026-04-22 17:26 56.08419 -3.40431 6796 ft 336 kts 278°
2026-04-22 17:27 56.08702 -3.43237 6977 ft 351 kts 278°
2026-04-22 17:27 56.09324 -3.48768 8906 ft 326 kts 280°
2026-04-22 17:27 56.09821 -3.52611 10429 ft 310 kts 282°
2026-04-22 17:27 56.10647 -3.56218 11102 ft 325 kts 295°
2026-04-22 17:28 56.11850 -3.59822 11342 ft 350 kts 305°
2026-04-22 17:28 56.13582 -3.63102 11531 ft 375 kts 319°
2026-04-22 17:28 56.15771 -3.65798 11987 ft 387 kts 331°
2026-04-22 17:28 56.18233 -3.67761 12712 ft 390 kts 341°
2026-04-22 17:29 56.20889 -3.68666 13478 ft 391 kts
2026-04-22 17:29 56.23544 -3.67671 14088 ft 393 kts 26°
2026-04-22 17:29 56.25775 -3.64886 14721 ft 392 kts 46°
2026-04-22 17:29 56.27651 -3.61325 15340 ft 394 kts 50°
2026-04-22 17:30 56.29522 -3.57681 15916 ft 397 kts 49°
2026-04-22 17:30 56.31407 -3.54001 16489 ft 401 kts 49°
2026-04-22 17:30 56.33427 -3.50492 17024 ft 406 kts 44°
2026-04-22 17:30 56.35287 -3.46675 17561 ft 407 kts 60°
2026-04-22 17:31 56.36368 -3.41993 18059 ft 406 kts 79°
2026-04-22 17:31 56.36778 -3.36949 18591 ft 408 kts 85°
2026-04-22 17:31 56.37136 -3.31854 19077 ft 412 kts 85°
2026-04-22 17:31 56.37518 -3.26705 19523 ft 416 kts 84°
2026-04-22 17:32 56.37915 -3.21503 19952 ft 420 kts 84°
2026-04-22 17:32 56.38318 -3.16244 20390 ft 424 kts 84°
2026-04-22 17:32 56.38585 -3.12745 20659 ft 427 kts 83°
2026-04-22 17:32 56.38991 -3.07401 21070 ft 432 kts 83°
2026-04-22 17:33 56.39393 -3.02014 21486 ft 435 kts 83°
2026-04-22 17:33 56.39796 -2.96578 21896 ft 439 kts 83°
2026-04-22 17:33 56.40201 -2.91080 22308 ft 443 kts 83°
2026-04-22 17:33 56.40605 -2.85543 22703 ft 447 kts 83°
2026-04-22 17:34 56.41006 -2.79971 23129 ft 449 kts 83°
2026-04-22 17:34 56.41406 -2.74355 23520 ft 453 kts 83°
2026-04-22 17:34 56.41806 -2.68698 23895 ft 456 kts 82°
2026-04-22 17:34 56.42209 -2.62997 24238 ft 459 kts 82°
2026-04-22 17:35 56.42614 -2.57247 24560 ft 462 kts 82°
2026-04-22 17:35 56.43019 -2.51477 24882 ft 465 kts 82°
2026-04-22 17:35 56.43425 -2.45656 25204 ft 468 kts 82°
2026-04-22 17:35 56.43831 -2.39800 25523 ft 471 kts 82°
2026-04-22 17:36 56.44235 -2.33915 25831 ft 473 kts 82°
2026-04-22 17:36 56.44635 -2.27990 26127 ft 476 kts 83°
2026-04-22 17:36 56.45033 -2.22053 26486 ft 476 kts 82°
2026-04-22 17:36 56.45432 -2.16098 26794 ft 478 kts 83°
2026-04-22 17:37 56.45829 -2.10118 27080 ft 480 kts 83°
2026-04-22 17:37 56.46226 -2.04110 27359 ft 483 kts 83°
2026-04-22 17:37 56.46623 -1.98060 27633 ft 485 kts 83°
2026-04-22 17:37 56.47012 -1.92066 27899 ft 487 kts 83°
2026-04-22 17:38 56.47406 -1.85967 28197 ft 489 kts 83°
2026-04-22 17:38 56.47798 -1.79863 28591 ft 488 kts 83°
2026-04-22 17:38 56.48186 -1.73767 28986 ft 488 kts 83°
2026-04-22 17:38 56.48575 -1.67602 29457 ft 485 kts 83°
2026-04-22 17:39 56.48949 -1.61556 29992 ft 481 kts 83°
2026-04-22 17:39 56.49318 -1.55557 30431 ft 480 kts 83°
2026-04-22 17:39 56.50055 -1.43564 31157 ft 478 kts 83°
2026-04-22 17:40 56.50411 -1.37661 31519 ft 477 kts 83°
2026-04-22 17:40 56.50767 -1.31707 31911 ft 475 kts 83°
2026-04-22 17:40 56.51117 -1.25769 32285 ft 473 kts 84°
2026-04-22 17:40 56.51463 -1.19855 32676 ft 471 kts 84°
2026-04-22 17:41 56.51804 -1.13966 33059 ft 469 kts 85°
2026-04-22 17:41 56.52140 -1.08135 33627 ft 462 kts 85°
2026-04-22 17:41 56.52474 -1.02386 34161 ft 457 kts 85°
2026-04-22 17:41 56.52803 -0.96671 34591 ft 454 kts 85°
2026-04-22 17:42 56.53126 -0.90995 34930 ft 453 kts 85°
2026-04-22 17:42 56.53447 -0.85323 35229 ft 451 kts 85°
2026-04-22 17:42 56.53763 -0.79668 35522 ft 451 kts 85°
2026-04-22 17:42 56.54073 -0.74035 35787 ft 450 kts 86°
2026-04-22 17:43 56.54380 -0.68397 36053 ft 449 kts 86°
2026-04-22 17:43 56.54685 -0.62767 36313 ft 449 kts 86°
2026-04-22 17:43 56.54987 -0.57144 36565 ft 448 kts 85°
2026-04-22 17:43 56.55287 -0.51524 36806 ft 447 kts 86°
2026-04-22 17:44 56.55584 -0.45924 37041 ft 447 kts 85°
2026-04-22 17:44 56.55879 -0.40317 37275 ft 446 kts 86°
2026-04-22 17:44 56.56172 -0.34716 37477 ft 446 kts 86°
2026-04-22 17:45 56.56751 -0.23467 37535 ft 450 kts 86°
2026-04-22 17:45 56.57320 -0.12168 37534 ft 450 kts 86°
2026-04-22 17:46 56.57876 -0.00865 37526 ft 449 kts 86°
2026-04-22 17:46 56.58423 0.10344 37531 ft 444 kts 87°
2026-04-22 17:47 56.58950 0.21495 37535 ft 444 kts 87°
2026-04-22 17:47 56.59470 0.32653 37539 ft 444 kts 87°
2026-04-22 17:48 56.59979 0.43801 37540 ft 444 kts 87°
2026-04-22 17:48 56.60484 0.54979 37543 ft 444 kts 87°
2026-04-22 17:49 56.60978 0.66143 37550 ft 443 kts 88°
2026-04-22 17:49 56.61460 0.77256 37553 ft 441 kts 88°
2026-04-22 17:50 56.61925 0.88329 37550 ft 439 kts 88°
2026-04-22 17:50 56.62375 0.99376 37542 ft 438 kts 88°
2026-04-22 17:51 56.62821 1.10394 37539 ft 438 kts 88°
2026-04-22 17:51 56.63257 1.21341 37537 ft 437 kts 88°
2026-04-22 17:52 56.63690 1.32382 37544 ft 434 kts 88°
2026-04-22 17:52 56.64105 1.43309 37544 ft 433 kts 89°
2026-04-22 17:53 56.64505 1.54222 37541 ft 432 kts 89°
2026-04-22 17:53 56.64892 1.65114 37537 ft 432 kts 89°
2026-04-22 17:54 56.65270 1.75922 37532 ft 431 kts 89°
2026-04-22 17:54 56.65637 1.86769 37537 ft 428 kts 89°
2026-04-22 17:55 56.65940 1.95809 37535 ft 426 kts 89°
2026-04-22 17:55 56.66350 2.08277 37532 ft 424 kts 89°
2026-04-22 17:56 56.66691 2.18963 37521 ft 423 kts 89°
2026-04-22 17:56 56.67013 2.29650 37519 ft 423 kts 89°
2026-04-22 17:57 56.67332 2.40311 37504 ft 421 kts 90°
2026-04-22 17:57 56.67647 2.50919 37510 ft 419 kts 90°
2026-04-22 17:58 56.67947 2.61498 37498 ft 418 kts 90°
2026-04-22 17:58 56.68230 2.72052 37497 ft 418 kts 90°
2026-04-22 17:59 56.68506 2.82592 37492 ft 417 kts 90°
2026-04-22 17:59 56.68773 2.93128 37485 ft 416 kts 90°
2026-04-22 18:00 56.68992 3.01852 37487 ft 415 kts 90°
2026-04-22 18:00 56.69292 3.14111 37499 ft 414 kts 90°
2026-04-22 18:01 56.69537 3.24564 37502 ft 413 kts 90°
2026-04-22 18:01 56.69766 3.34989 37492 ft 412 kts 90°
2026-04-22 18:02 56.69986 3.45408 37488 ft 412 kts 90°
2026-04-22 18:02 56.70203 3.55818 37482 ft 411 kts 90°
2026-04-22 18:03 56.70401 3.66207 37487 ft 410 kts 90°
2026-04-22 18:03 56.70128 3.76506 37484 ft 406 kts 103°
2026-04-22 18:04 56.68835 3.86497 37476 ft 405 kts 104°
2026-04-22 18:04 56.67559 3.96479 37465 ft 405 kts 104°
2026-04-22 18:05 56.66286 4.06450 37468 ft 405 kts 104°
2026-04-22 18:05 56.64986 4.16402 37470 ft 404 kts 104°
2026-04-22 18:06 56.63677 4.26334 37464 ft 404 kts 104°
2026-04-22 18:06 56.62365 4.36246 37463 ft 403 kts 104°
2026-04-22 18:07 56.61277 4.44470 37453 ft 403 kts 104°
2026-04-22 18:07 56.59740 4.56029 37452 ft 403 kts 104°
2026-04-22 18:08 56.58411 4.65896 37445 ft 403 kts 104°
2026-04-22 18:08 56.57069 4.75762 37449 ft 402 kts 104°
2026-04-22 18:09 56.55727 4.85601 37447 ft 402 kts 104°
2026-04-22 18:09 56.54379 4.95433 37437 ft 402 kts 104°
2026-04-22 18:10 56.53094 5.05273 37434 ft 401 kts 101°
2026-04-22 18:10 56.52185 5.15223 37427 ft 401 kts 99°
2026-04-22 18:11 56.51370 5.25227 37428 ft 401 kts 99°
2026-04-22 18:11 56.50474 5.35203 37420 ft 401 kts 100°
2026-04-22 18:12 56.49512 5.45153 37419 ft 401 kts 100°
2026-04-22 18:12 56.48705 5.53422 37419 ft 401 kts 100°
2026-04-22 18:13 56.47570 5.65049 37422 ft 401 kts 100°
2026-04-22 18:13 56.46593 5.74989 37421 ft 402 kts 101°
2026-04-22 18:14 56.45577 5.84919 37409 ft 402 kts 102°
2026-04-22 18:14 56.44366 5.94720 37411 ft 402 kts 103°
2026-04-22 18:15 56.43053 6.04539 37415 ft 402 kts 103°
2026-04-22 18:15 56.41756 6.14367 37424 ft 402 kts 103°
2026-04-22 18:16 56.40475 6.24259 37417 ft 402 kts 103°
2026-04-22 18:16 56.39200 6.34017 37408 ft 402 kts 103°
2026-04-22 18:17 56.37912 6.43816 37408 ft 401 kts 103°
2026-04-22 18:17 56.36617 6.53611 37396 ft 401 kts 103°
2026-04-22 18:18 56.35531 6.61805 37392 ft 401 kts 103°
2026-04-22 18:18 56.34224 6.71580 37380 ft 401 kts 103°
2026-04-22 18:19 56.32906 6.81349 37387 ft 401 kts 103°
2026-04-22 18:19 56.31581 6.91099 37379 ft 401 kts 103°
2026-04-22 18:20 56.30255 7.00779 37374 ft 401 kts 103°
2026-04-22 18:20 56.28914 7.10506 37372 ft 400 kts 103°
2026-04-22 18:21 56.27562 7.20296 37363 ft 400 kts 103°
2026-04-22 18:21 56.26210 7.30011 37362 ft 400 kts 103°
2026-04-22 18:22 56.24859 7.39718 37358 ft 400 kts 103°
2026-04-22 18:22 56.23487 7.49415 37356 ft 400 kts 103°
2026-04-22 18:23 56.22105 7.59099 37345 ft 400 kts 103°
2026-04-22 18:23 56.20723 7.68796 37345 ft 401 kts 103°
2026-04-22 18:24 56.18635 7.83334 37340 ft 401 kts 103°
2026-04-22 18:25 56.16522 7.97861 37339 ft 401 kts 103°
2026-04-22 18:25 56.15115 8.07483 37346 ft 401 kts 103°